Regional Weather Roundup
Issued by NWS

Home | Current Version | Previous Version | Text Only | Print | Product List | Glossary On
Versions: 1 2 3 4 5 6 7 8 9 10 11 12 13 14 15 16 17 18 19 20 21 22 23 24 25 26 27
000
ASUS44 KBMX 251710
RWRAL

ALABAMA REGIONAL WEATHER ROUNDUP
NATIONAL WEATHER SERVICE BIRMINGHAM AL
1200 PM CDT MON JUL 25 2016

NOTE: "FAIR" INDICATES FEW OR NO CLOUDS BELOW 12,000 FEET
WITH NO SIGNIFICANT WEATHER AND/OR OBSTRUCTIONS TO VISIBILITY.

THE REMARK "TC" DENOTES TEMPERATURE IN DEGREES CELSIUS.

ALZ001>011-014-016>018-020-251800-
NORTH ALABAMA

CITY           SKY/WX    TMP DP  RH WIND       PRES   REMARKS
MUSCLE SHOALS  SUNNY     91  71  51 SW8       30.05F HX  97
HUNTSVILLE     MOSUNNY   94  68  42 VRB5      30.06F HX  98
DECATUR        MOSUNNY   91  72  53 SE8       30.06F HX  98
HALEYVILLE     FAIR      90  70  51 SE10      30.09F HX  95
GADSDEN        SUNNY     91  75  59 VRB6      30.06F HX 101
$$

ALZ012-013-022-023-030>036-040>044-251800-
WEST CENTRAL ALABAMA

CITY           SKY/WX    TMP DP  RH WIND       PRES   REMARKS
TUSCALOOSA     MOSUNNY   89  73  59 VRB6      30.03F HX  97
$$

ALZ015-024>027-033>036-040>044-251800-
CENTRAL ALABAMA

CITY           SKY/WX    TMP DP  RH WIND       PRES   REMARKS
BIRMINGHAM     MOSUNNY   91  69  48 CALM      30.08F HX  96
MONTGOMERY     MOSUNNY   91  74  57 CALM      30.04F HX 100
SHELBY CO ARPT MOSUNNY   91  70  49 S8        30.06F HX  96
MAXWELL AFB    SUNNY     91  73  54 S6        30.04F HX  99
GREENVILLE     FAIR      90  70  51 SE7       30.04F HX  95
$$

ALZ019-021-028-029-037-038-045>048-251800-
EAST CENTRAL ALABAMA

CITY           SKY/WX    TMP DP  RH WIND       PRES   REMARKS
ANNISTON       SUNNY     90  70  51 VRB3      30.06F HX  95
ALEXANDER CITY SUNNY     93  78  61 SE6       30.08F HX 107
AUBURN         PTSUNNY   90  71  53 E6        30.08F HX  96
$$

ALZ051>064-251800-
SOUTHWEST ALABAMA

CITY           SKY/WX    TMP DP  RH WIND       PRES   REMARKS
MOBILE         PTSUNNY   89  75  63 SE12      30.00F HX  99
BROOKLEY FIELD PTSUNNY   88  78  72 SE7       30.00F HX 101
EVERGREEN      MOSUNNY   90  72  55 MISG      30.04F HX  97
$$

ALZ049-050-065>069-251800-
SOUTHEAST ALABAMA

CITY           SKY/WX    TMP DP  RH WIND       PRES   REMARKS
DOTHAN         MOSUNNY   88  74  63 E7        30.09F HX  96
OZARK          MOSUNNY   90  76  62 SE10      30.04F HX 101
TROY           MOSUNNY   90  75  61 SE8       30.06F HX 100
EUFAULA        FAIR      93  71  48 SE3       30.04F HX 100
$$




USA.gov is the U.S. government's official web portal to all federal, state and local government web resources and services.